Weather Roundup
Issued by NWS Corpus Christi, TX

Home | Current Version | Previous Version | Text Only | Print | Product List | Glossary On
Versions: 1 2 3 4 5 6 7 8 9 10 11 12 13 14 15 16 17 18 19 20 21 22 23 24 25 26 27 28 29 30 31 32 33 34 35 36 37 38 39 40 41 42 43 44 45 46 47 48 49 50
296
ASUS44 KCRP 241210
HRRCRP

SOUTH TEXAS REGIONAL WEATHER ROUNDUP
NATIONAL WEATHER SERVICE CORPUS CHRISTI TX
700 AM CDT TUE MAY 24 2016


TXZ229>244-241300-
...CORPUS CHRISTI AREA OBSERVATIONS...

CITY           SKY/WX    TMP DP  RH WIND       PRES   REMARKS
CORPUS CHRISTI CLOUDY    80  76  87 SE12      29.86R
NAS CORPUS CHR MOCLDY    80  79  96 SE14      29.86R
ROCKPORT       MOCLDY    80  76  87 SE13      29.86R
KINGSVILLE NAS MOCLDY    79  79 100 SE8       29.85R
ALICE          CLOUDY    77  76  96 E9        29.86R FOG
FALFURRIAS     PTCLDY    78  75  90 SE5       29.84R
$$

...VICTORIA AREA OBSERVATIONS...

CITY           SKY/WX    TMP DP  RH WIND       PRES   REMARKS
VICTORIA       PTCLDY    76  74  93 SE9       29.88R FOG
BEEVILLE       CLOUDY    70  70 100 SE8       29.88R FOG
PLEASANTON     CLOUDY    76  73  90 SE5       29.90R
SAN ANTONIO    CLOUDY    75  72  90 S9        29.90R
$$

...LAREDO AREA OBSERVATIONS...

CITY           SKY/WX    TMP DP  RH WIND       PRES   REMARKS
LAREDO         CLOUDY    77  74  90 E7        29.85S
COTULLA        CLOUDY    77  74  90 E6        29.87R
DEL RIO        CLOUDY    74  65  73 SE9       29.83R
MCALLEN        CLOUDY    80  77  90 SE13      29.82R FOG
HEBBRONVILLE   CLOUDY    77  74  91 SE8       29.87R FOG
$$

...OTHER TEXAS OBSERVATIONS...

CITY           SKY/WX    TMP DP  RH WIND       PRES   REMARKS
BROWNSVILLE    PTCLDY    79  78  97 SE9       29.85R FOG
HOUSTON        MOCLDY    74  73  97 SE5       29.92R
COL. STATION   CLOUDY    72  71  97 E7        29.91R
AUSTIN         MOCLDY    75  72  90 S5        29.91R
WACO           CLOUDY    74  70  87 S12       29.91R
FORT WORTH     CLOUDY    75  69  81 S5        29.92R
WICHITA FALLS  PTCLDY    66  64  93 SE8       29.88R
LUBBOCK        MOCLDY    70  66  87 SW13      29.89R FOG
EL PASO        CLEAR     69  20  15 S3        29.95R
$$

...MARINE OBSERVATIONS...

STATION/POSITION TIME  SKY/WX   TEMP    WIND        PRES    VSBY  WAVE   SWELL
                                AIR SEA DIR/SP/G                  HT/PER HT/PER
                 (UTC)          (F)     (DEG/KT/KT) (MB)    (MI)  (FT/S) (FT/S)
PORT ARANSAS     1200            80 80  130/ 17/ 19 1011.9R
BUOY 90 E PORT A 1150            80 80  110/ 16/ 17 1011.9F         3/ 5
BUOY 45 SE BAFFI 1150            80 81  130/ 14/ 16 1010.7R         4/ 7   2/ 7
BUOY 200 E PT IS 1150                                 N/A           3/ 5   2/ 9
BUOY 15 E GALVES 1150            78 79  140/ 14/ 16 1013.2R         3/ 4
$$




USA.gov is the U.S. government's official web portal to all federal, state and local government web resources and services.